Thursday, September 20, 2018, 9:14 AM EDT
Back to Local

KOWD, Norwood Memorial Airport

Location: Norwood, MA, United States Lat: 42.183
Local Time: 9:14 AM EDT (13:14 GMT) Lon: -71.167
Time Zone: US/Eastern Elev: 49 ft

Show me the last for .
Show Coded

Time T Td Feel RH Dir Speed Gust Alt SLP Vis Weather Sky Remarks
2018-09-20 08:53 65 58 - 78 Variable 6 - 30.21 30.21 10 FEW016 OVC026 None
2018-09-20 08:27 64 58 - 80 10° 7 - 30.21 - 10 FEW015 BKN027 None
2018-09-20 07:53 64 58 - 80 20° 7 - 30.19 30.19 10 SCT026 BKN031 6-hr Min Temp (8am): 60.1°F
6-hr Max Temp (8am): 64.0°F
2018-09-20 06:53 62 58 - 86 40° 7 - 30.17 30.16 10 OVC023 None
2018-09-20 06:08 61 58 - 89 10° 3 - 30.14 - 10 OVC015 None
2018-09-20 05:53 61 57 - 86 40° 5 - 30.14 30.14 10 BKN014 None
2018-09-20 05:42 61 57 - 86 350° 3 - 30.14 - 10 BKN015 None
2018-09-20 04:53 61 57 - 86 360° 5 - 30.13 30.12 10 CLR None
2018-09-20 04:13 60 57 - 89 40° 5 - 30.12 - 10 FEW015 SCT023 SCT055 None
2018-09-20 03:53 61 57 - 86 350° 3 - 30.13 30.12 10 BKN017 BKN024 BKN029 None
2018-09-20 02:53 61 57 - 86 - Calm - 30.12 30.11 10 BKN017 BKN025 None
2018-09-20 01:53 61 56 - 83 340° 3 - 30.11 30.11 10 SCT055 6-hr Min Temp (2am): 61.0°F
6-hr Max Temp (2am): 64.0°F
2018-09-20 01:27 62 56 - 80 20° 5 - 30.11 - 10 SCT029 SCT055 None
2018-09-20 00:53 63 56 - 77 10° 5 - 30.11 30.11 10 OVC028 24-hr Min Temp (1am): 61.0°F
24-hr Max Temp (1am): 71.1°F
2018-09-19 23:53 63 56 - 77 350° 6 - 30.09 30.09 10 BKN025 OVC031 None
2018-09-19 23:18 63 56 - 77 40° 5 - 30.08 - 10 BKN026 BKN049 None
2018-09-19 23:09 62 55 - 77 20° 3 - 30.08 - 10 SCT026 BKN050 None
2018-09-19 22:53 63 56 - 77 50° 8 - 30.08 30.07 10 BKN026 OVC050 None
2018-09-19 22:21 63 56 - 77 30° 9 - 30.08 - 10 BKN025 OVC030 None
2018-09-19 21:53 63 57 - 80 Variable 6 - 30.07 30.06 10 SCT021 OVC030 None
2018-09-19 21:04 63 57 - 80 30° 7 - 30.07 - 10 FEW019 BKN023 OVC050 None
2018-09-19 20:53 62 57 - 83 50° 6 - 30.06 30.06 10 FEW021 BKN031 BKN050 None
2018-09-19 20:09 62 57 - 83 50° 5 - 30.05 - 10 SCT028 None
2018-09-19 19:53 62 57 - 83 70° 9 - 30.04 30.04 10 FEW018 BKN028 OVC050 6-hr Min Temp (8pm): 62.1°F
6-hr Max Temp (8pm): 66.0°F
2018-09-19 19:45 62 57 - 83 60° 6 - 30.05 - 10 FEW017 OVC028 None
2018-09-19 18:53 63 57 - 80 60° 6 - 30.03 30.03 10 FEW021 OVC050 None
2018-09-19 17:53 64 58 - 80 50° 8 - 30.02 30.01 10 FEW016 SCT021 OVC050 None
2018-09-19 17:45 65 58 - 78 60° 9 - 30.01 - 10 SCT019 OVC050 None
2018-09-19 17:36 65 58 - 78 60° 7 - 30.00 - 10 BKN019 OVC050 None
2018-09-19 17:00 65 58 - 78 60° 8 - 29.98 - 10 SCT017 OVC049 None
2018-09-19 16:53 65 58 - 78 50° 9 - 29.98 29.98 10 BKN017 OVC049 None
2018-09-19 15:53 65 59 - 81 60° 6 - 29.97 29.97 10 OVC015 None
2018-09-19 15:23 65 59 - 81 40° 9 - 29.97 - 10 BKN015 OVC020 None
2018-09-19 15:00 65 60 - 84 40° 7 - 29.97 - 10 BKN013 OVC020 None
2018-09-19 14:53 65 60 - 84 50° 9 - 29.97 29.96 10 OVC009 None
2018-09-19 13:53 65 61 - 87 50° 8 - 29.97 29.96 10 BKN009 OVC016 6-hr Min Temp (2pm): 64.0°F
6-hr Max Temp (2pm): 66.0°F
2018-09-19 12:53 66 61 - 83 60° 12 - 29.96 29.95 10 BKN009 OVC016 None
2018-09-19 11:53 65 61 - 87 40° 8 - 29.96 29.96 10 BKN008 OVC013 None
2018-09-19 11:31 64 61 - 89 50° 9 - 29.95 - 5 BR BKN008 OVC013 None
2018-09-19 11:23 64 61 - 89 40° 7 17 29.96 - 8 BKN010 OVC015 None
2018-09-19 11:04 64 61 - 89 50° 8 - 29.95 - 5 BR OVC008 None
2018-09-19 10:53 64 62 - 93 40° 8 - 29.95 29.95 2 BR BKN008 OVC014 None
2018-09-19 10:18 65 62 - 90 30° 7 - 29.94 - 3 BR BKN005 OVC012 None
2018-09-19 09:53 64 62 - 93 20° 7 - 29.93 29.93 1 BR OVC006 None

Support USWX by starting your Amazon purchase here.